CAP D\\\'ESPOIR (AUT) current weather conditions

sailwx.info

Wind from 060 at 14 knots

Last reported at 2019-Oct-15 17:00 UTC.
Time now 2019-Oct-15 18:31 UTC

Location: N 48°25' W 064°19'.
View on Google Maps.

See reports from other nearby stations

  
Tides and Currents Weather Stations Pressure Air Temp Water Temp Dewpoint Dewpoint Depression Visibility Wind Speed Wind Dir Waves Ship Positions
date/time (UTC)wind fromknots sea level pressurealtimeterstation pressurevisibilityair tempwater tempwave heightnotes
2019-Oct-15 18:00 070 14
2019-Oct-15 17:00 060 14
2019-Oct-15 16:00 250 5
2019-Oct-15 15:00 260 5
2019-Oct-15 10:00 180 12
2019-Oct-15 09:00 180 13
2019-Oct-15 08:00 170 17
2019-Oct-15 07:00 170 15
2019-Oct-15 06:00 170 13
2019-Oct-15 05:00 210 5
2019-Oct-15 04:00 190 6
2019-Oct-15 03:00 180 5
2019-Oct-15 02:00 190 7
2019-Oct-15 01:00 220 6
2019-Oct-15 00:00 150 2
2019-Oct-14 23:00 060 2
2019-Oct-14 22:00 020 2
2019-Oct-14 21:00 010 4
2019-Oct-14 20:00 050 5
2019-Oct-14 19:00 020 2
2019-Oct-14 18:00 130 2
2019-Oct-14 17:00 140 7
2019-Oct-14 16:00 150 13
2019-Oct-14 15:00 140 12
2019-Oct-14 14:00 170 9
2019-Oct-14 13:00 140 4
2019-Oct-14 12:00 160 6
2019-Oct-14 11:00 080 0
2019-Oct-14 10:00 090 0
2019-Oct-14 09:00 070 0
2019-Oct-14 08:00 040 1
2019-Oct-14 07:00 030 2
2019-Oct-14 06:00 030 1
2019-Oct-14 05:00
2019-Oct-14 04:00 350 0
2019-Oct-14 03:00 300 1
2019-Oct-14 02:00 300 1
2019-Oct-14 01:00 270 1
2019-Oct-14 00:00 010 1
2019-Oct-13 23:00 010 1
2019-Oct-13 22:00
2019-Oct-13 21:00 150 2
2019-Oct-13 20:00 150 5
2019-Oct-13 19:00 160 4
2019-Oct-13 18:00 120 4